Погода в Волгограде

Погода в Волгограде : погода сейчас, прогноз погоды и архив. Всё, что Вы хотите узнать о погоде в Волгограде!

Хотите узнать прогноз погоды в Волгограде? Тогда Вам сюда: Погода в Волгограде

Поиск расширенной информации на нашем сайте:

Полезная информация: двигатель погрузчика екатеринбург, ооо.

Другие новости

Новости СМИ2

Главная страница сайта

Новости сайта

02.10.2013

Напоминаем, что на нашем новом сайте вы можете получить высокодетализированные прогнозы погоды по пунктам России, СНГ и мира (включающие важные для авиации метеовеличины, такие как направление и скорость ветра, видимость, явления погоды, количество и форма облачности, нижняя и верхняя граница облачности), а также ознакомиться с разнообразными материалами по авиационной метеорологии и подборкой полезных ссылок на эту тему.

Сайт Метеоцентр.Азия посвящён разработке технологий оптимизации авиаметеорологического обслуживания, включая проектирование и перспективное создание нескольких автоматизированных авиаметеорологических систем:
- система выпуска высокодетальных прогностических карт явлений погоды для нижнего воздушного пространства по России и ближнему зарубежью;
- система верификации прогнозов TAF (выпускаемых синоптиками официальных АМСГ РФ и ближнего зарубежья) и AUTOTAF (выпускаемых сайтом Метеоцентр.Азия) - выявление ошибок, онлайн-сопоставление с фактической погодой METAR, автоматическое внесение коррективов в прогнозы при резком отклонении фактической погоды от прогноза, подсчёт оправдываемости прогнозов по элементам и в целом;
- система обработки, анализа и отображения авиаметеорологической информации для применения провайдерами метеорологической информации.

Рекомендуем: Чоп охрана хабаровск там.

Погода в Волгограде - сегодня

Время (UTC), дата Ветер
(°,м/с) 
Видим.   Явления Облачность Т
(°С)
Тd
(°С)
f(%) Тe
(°С)
Pmin
(гПа)
dP
(гПа)
Po
(мм)
O2
(г/м3)
Тmin Tmax R s Состояние
почвы
00 21.01.17 280 (З) 6{13}  4000 м  дымка{снег}  10/10 150 м 
[St]
-5.8 -6.5 95 -10  1019  -0.6  749  309           
03 21.01.17 280 (З) 4000 м  дымка  10/10 150 м 
[St]
-5.7 -6.5 94 -10  1018.3  -0.7  749  309  -6.2         
06 21.01.17 270 (З) 4000 м  слаб. снег  10/8 180 м средняя 
[Frnb|As op]
-5.2 -6.2 93 -10  1018.1  -0.1  749  308           
09 21.01.17 270 (З) 8-11{10}  4000 м  слаб. снег  10/10 240 м 
[Frnb|Ns]
-4 -5.5 89 -9  1016.8  -1.2  748  306           
12 21.01.17 260 (З) 8{12}  10 км  {снег}  10/10 270 м 
[St]
-3.3 -5 88 -8  1014.6  -2.1  746  305           
15 21.01.17 260 (З) 9-10{13}  4000 м  слаб. ливневой снег  10/10 210 м кучево-дожд. 
[Cb calv]
-3.1 -4.2 92 -8  1012.4  -2.1  745  304    -3       
18 21.01.17 270 (З) 10-13{15}  4000 м  ливневой снег  10/10 150 м кучево-дожд. 
[Cb calv]
-2.7 -3.5 94 -8  1010.5  -1.6  743  303           
21 21.01.17 290 (З) 10-13{14}  4000 м  слаб. ливневой снег  10/10 150 м кучево-дожд. 
[Cb calv]
-2.1 -2.8 95 -7  1010.3  -0.2  743  302           
00 22.01.17 340 (С) 10-13{16}  10 км  позёмок{ливн. осадки}  4/0 средняя 
[Ac trans]
-6.2 -10.4 72 -13  1014.7  746  309           
03 22.01.17 310 (СЗ) 5{13}  10 км    ясно 
-9.9 -12 85 -15  1018.6  3.6  749  314  -10         
06 22.01.17 300 (СЗ) 8{13}  10 км    ясно 
-8.8 -10.4 88 -15  1021.6  751  314  -11.2         
09 22.01.17 300 (СЗ) 9-13{13}  10 км    ясно 
-5.3 -8.9 76 -11  1022.7  1.3  752  310           
12 22.01.17 280 (З) 7-10{13}  10 км    ясно 
-4.3 -9.3 68 -9  1023.4  0.7  753  309           
15 22.01.17 280 (З) 6{11}  10 км    3/0 верхняя 
[Ci fib]
-7 -10.2 78 -12  1023.6  753  312    -4.1       
18 22.01.17 270 (З) 8-11{12}  10 км    ясно 
-7.3 -10.6 77 -13  1022.7  -0.9  752  312           
21 22.01.17 260 (З) 7{12}  10 км    9/0 средняя 
[Ac trans]
-7.3 -9.7 83 -13  1020.9  -1.8  751  312           
00 23.01.17 280 (З) 9-14{14}  10 км  слаб. снег  10/10 570 м 
[Ns]
-6.1 -7.8 88 -12  1019.8  -1  750  310           
03 23.01.17 300 (СЗ) 9-11{13}  10 км  позёмок{снег}  9/9 450 м 
[Sc]
-3.8 -5.5 88 -9  1020.4  0.7  751  307  -7.8         
06 23.01.17 290 (З) 7{13}  10 км  {снег}  10/10 360 м 
[St]
-2.2 -3.7 89 -7  1022.1  1.8  752  306           
09 23.01.17 280 (З) 6{10}  10 км  в посл. час снег  10/6 270 м средняя 
[St|As op]
-0.6 -2.5 87 -4  1023.4  1.4  753  304           
12 23.01.17 270 (З) 6{10}  4000 м  слаб. снег  10/10 180 м 
[Frnb|Ns]
-0.9 -1.9 93 -5  1022.8  -0.6  752  304           
15 23.01.17 250 (З) 10 км  {снег}  10/10 240 м 
[St]
-1.6 -2.7 92 -6  1022.6  -0.3  752  305    -0.4       
18 23.01.17 270 (З) 8-11{10}  4000 м  дымка{снег}  10/10 120 м 
[St]
-3.2 -3.9 95 -8  1021.6  -1.1  751  307           
21 23.01.17 280 (З) 8-11{11}  10 км    10/10 210 м 
[St]
-3 -4.2 91 -8  1020.7  -0.9  751  306           
00 24.01.17 260 (З) 6{12}  10 км    5/0 верхняя 
[Ci fib]
-4.1 -5.2 92 -8  1019.9  -0.8  750  307           
Время (UTC), дата Ветер
(°,м/с) 
Видим.   Явления Облачность Т
(°С)
Тd
(°С)
f(%) Тe
(°С)
Pmin
(гПа)
dP
(гПа)
Po
(мм)
O2
(г/м3)
Тmin Tmax R s Состояние
почвы

Для получения пояснительной информации подведите курсор к названию столбца.

ПОГОДА в Волгограде - архив

Всё, что Вы хотите узнать о погоде в Волгограде - удобно и подробно!

Выберите нужную дату (начиная с 1 января 2015* года) и нажмите кнопку "Найти".
Будут отображены архивные сводки погоды по пункту Волгоград, начиная с указанной даты.


Отображать данные в формате CSV (для использования в таблицах Excel)


Внимание! Наш архив погоды предназначен исключительно для личного некоммерческого использования в познавательных целях. Если Вам необходимы официальные справки о состоянии погоды (для производственных, юридических, коммерческих и т.п. целей), обращайтесь в органы Росгидромета.

*Примечание: данная дата относится к архиву по метеостанциям СССР (Россия, СНГ, Балтия).
Архив по метеостанциям Зарубежной Европы и Азии (кроме Китая) хранится 10 дней, по другим регионам земного шара (Китай, Африка, Америка, Австралия, Океания) - 1 день.

Волгоград - район местоположения метеостанции


Название, широта, долгота, высота метеостанции:
Волгоград (Гумрак) 48.8°ш. 44.4°д. 134 м над ур. моря [Российская Федерация]

Дополнительная информация

В oтличие oт бoльшинства пoгoдных сайтoв мы публикуем пoдрoбную метеoинфoрмацию в детальнoм прoфессиoнальнoм фoрмате.

Характеристики температуры и влажнoсти вoздуха измеряются на высoте 2 м в тени вдали oт зданий и деревьев.
Скoрoсть ветра измеряется на высoте 10 м (на урoвне рoста челoвека скoрoсть ветра ниже в 1.5-2 раза). Если метеoстанция нахoдится в гoрoде или в лесу, тo скoрoсть ветра занижена на 2-4 м/с пo сравнению с oткрытым местoм. Скoрoсть ветра над акватoриями крупных рек и oзёр, а также на вершинах хoлмoв на 2-5 м/с выше, чем в oбычных услoвиях.
Атмoсфернoе давление в разных тoчках местнoсти мoжет значительнo oтличаться oт давления на метеoстанции, в зависимoсти oт услoвий рельефа (при пoдъёме на 10 м давление пoнижается примернo на 1 мм рт.ст.).